Location: Newark
(45.4422°N, 16.2769°E)
Time: 17:19:52
(UTC+00:00)

Tiros 1 despin weight - Pass Details

Date: 24 December 2019
Orbit: 594 x 642 km, 48.2° (Epoch: 25 January)

Event Time Altitude Azimuth Distance (km) Brightness Sun altitude
Rises 01:55:55 0° 280° (W) 2,919 - -47.3°
Reaches altitude 10° 01:58:17 10° 284° (WNW) 2,003 - -46.9°
Maximum altitude 02:02:51 62° 5° (N) 698 - -46.1°
Drops below altitude 10° 02:07:21 10° 87° (E) 1,970 - -45.4°
Exits shadow 02:08:52 - 90° (E) 2,558 ? -45.1°
Sets 02:09:40 0° 91° (E) 2,866 ? -45.0°
